Location: Colorado Springs
(38.8340°N, 104.8210°W)
Time: 01:44:52
(UTC-06:00)

N. Korean satellite - Pass Details

Date: 16 October 2017
Orbit: 459 x 517 km, 97.2° (Epoch: 22 October)

Event Time Altitude Azimuth Distance (km) Brightness Sun altitude
Rises 19:43:55 0° 194° (SSW) 2,541 10.4 -17.3°
Reaches altitude 10° 19:46:16 10° 209° (SSW) 1,655 9.6 -17.8°
Maximum altitude 19:49:11 24° 264° (W) 1,041 9.1 -18.3°
Drops below altitude 10° 19:52:04 10° 319° (NW) 1,641 9.8 -18.9°
Sets 19:54:24 0° 334° (NNW) 2,514 10.6 -19.3°
